Lid_Strength_Index
8 7 6 6 6 6 6 6 6 6 6 6 7 7 7 7 5 5 5 5 4 4 4 4 4 4 5 4 4 4 3 2
8 7 7 6 6 6 6 6 6 6 7 7 7 7 6 6 5 5 6 5 5 4 4 4 4 3 3 3 3 4 3 3
7 7 7 7 7 7 7 7 7 6 6 6 6 5 5 5 5 5 5 5 5 4 5 4 4 4 3 3 3 4 4 4
6 6 6 7 7 7 7 7 7 6 6 6 5 5 5 5 5 5 5 5 5 5 5 5 5 4 4 4 3 4 5 5
7 7 7 7 8 8 9 8 7 6 6 6 5 5 5 5 5 5 5 5 5 5 5 5 5 4 5 5 4 5 6 5
7 7 8 8 8 9 8 8 7 7 6 6 6 5 5 5 5 5 5 4 5 5 5 5 5 4 5 6 6 4 4 4
7 7 8 9 9 8 8 7 7 7 6 6 6 6 5 5 5 4 4 5 5 5 4 5 5 5 5 5 5 5 4 4
8 8 8 9 9 7 7 7 7 6 6 6 6 5 5 6 4 4 3 4 4 4 4 3 3 4 5 6 5 4 5 4
8 8 9 9 7 7 8 7 7 6 6 6 6 6 6 5 5 5 4 4 4 5 5 5 4 4 3 5 6 4 4 4
8 9 9 7 7 7 8 8 6 6 7 6 6 6 5 6 6 6 6 5 6 7 6 6 5 4 4 5 6 5 4 5
8 9 8 7 8 8 8 7 6 7 7 7 7 6 5 6 7 7 6 5 6 7 7 7 6 5 5 6 6 6 6 5
9 8 9 9 7 7 7 6 6 7 7 7 6 6 6 6 6 6 7 7 9 9 9 8 7 5 5 5 5 5 5 3
9 9 10 10 8 7 7 6 6 7 7 7 6 6 6 6 6 6 7 7 10 11 10 9 9 8 7 8 5 4 5 6
10 9 10 8 8 7 7 6 6 7 8 7 7 7 6 6 7 6 8 9 10 11 11 11 9 9 10 9 8 7 7 7
9 10 9 8 8 7 7 7 6 6 7 7 7 7 6 7 6 7 8 7 8 9 10 10 11 11 11 11 9 8 8 6
9 9 9 8 8 8 7 7 7 6 6 7 7 6 6 6 7 7 7 8 8 8 8 9 10 11 10 10 9 7 5 4
9 9 8 8 8 8 7 7 7 7 7 7 7 6 6 6 6 6 7 7 8 8 7 7 7 10 9 9 8 4 5 5
10 10 8 8 8 8 8 8 7 7 7 8 8 7 6 6 7 7 7 7 8 8 8 8 6 6 6 6 5 5 5 4
8 9 8 8 8 7 8 7 7 8 7 7 9 7 6 6 7 7 7 7 8 8 8 11 14 6 6 6 6 5 5 5
7 9 8 8 8 8 8 7 8 8 8 7 7 7 6 6 7 7 7 7 7 8 8 8 13 6 6 6 6 5 5 4